Flag for Germany Weather past 2 weeks in Herford, North Rhine-Westphalia, Germany

Now
43 °F

Passing clouds.


Feels Like: 39 °F
Forecast: 38 / 64 °F
Wind: 7 mph from Northwest

Location: Bueckeburg

Current Time: Apr 22, 2015 at 6:20:15 AM

Latest Report: Apr 22, 2015 at 5:20 AM


Visibility: 5 mi

Pressure: 30.36 "Hg

Humidity: 87%

Dew point: 39 °F

Location of HerfordLocation

Historic Weather in Herford — Graph

°F

Herford temperature yesterday

Maximum temperature yesterday: 66 °F (at 3:20 PM)
Minimum temperature yesterday: 37 °F (at 4:20 AM)
Average temperature yesterday: 52 °F

Past Weeks' High & Low Weather Summary

 TemperatureHumidityPressure
High73 °F (Apr 15, 3:20 PM)100% (Apr 9, 2:20 AM)30.60 "Hg (Apr 9, 2:20 AM)
Low32 °F (Apr 7, 5:20 AM)28% (Apr 21, 3:20 PM)29.89 "Hg (Apr 15, 6:20 PM)
Average50 °F66%30.25 "Hg
* Reported Apr 7 4:20 AM — Apr 22 4:20 AM, Herford, Weather by CustomWeather, © 2015

Note: Actual official high and low records may vary slightly from our data, if they occured in-between our weather recording intervals... More about our weather records

Advertising

Herford weather history for previous 24 hours

 ConditionsComfort  
Time TempWeatherWind HumidityBarometerVisibility
4:20 AM
Wed, Apr 22
43 °FPassing clouds.8 mph87%30.39 "HgN/A
3:20 AM43 °FPassing clouds.6 mph87%30.39 "HgN/A
2:20 AM43 °FPassing clouds.7 mph81%30.42 "HgN/A
1:20 AM43 °FPassing clouds.6 mph81%30.42 "HgN/A
12:20 AM43 °FPassing clouds.5 mph81%30.42 "HgN/A
11:20 PM
Tue, Apr 21
45 °FPassing clouds.10 mph76%30.45 "HgN/A
10:20 PM45 °FPassing clouds.8 mph81%30.45 "HgN/A
9:20 PM48 °FPassing clouds.13 mph76%30.42 "HgN/A
8:20 PM57 °FPassing clouds.7 mph44%30.39 "HgN/A
7:20 PM61 °FScattered clouds.10 mph36%30.36 "HgN/A
6:20 PM63 °FScattered clouds.14 mph37%30.36 "HgN/A
5:20 PM64 °FScattered clouds.14 mph37%30.36 "HgN/A
4:20 PM66 °FScattered clouds.14 mph35%30.36 "HgN/A
3:20 PM66 °FScattered clouds.14 mph28%30.39 "HgN/A
2:20 PM64 °FPartly sunny.15 mph32%30.39 "HgN/A
1:20 PM64 °FPartly sunny.10 mph34%30.39 "HgN/A
12:20 PM61 °FPartly sunny.7 mph36%30.42 "HgN/A
11:20 AM57 °FScattered clouds.7 mph48%30.42 "HgN/A
10:20 AM55 °FScattered clouds.6 mph59%30.42 "HgN/A
9:20 AM50 °FScattered clouds.3 mph71%30.42 "HgN/A
8:20 AM46 °FPassing clouds.1 mph76%30.42 "HgN/A
7:20 AM41 °FPassing clouds.3 mph93%30.42 "HgN/A
6:20 AM39 °FFog.2 mph87%30.39 "HgN/A
Weather by CustomWeather, © 2015

See weather overviewHow to use our weather pages